[ ตารางข้อมูล ] [ Min-Max ] [ วันนี้2 ] [ วันนี้4 ] [ เทียบ-A 3วัน ] [ เทียบ-B 4วัน ]   

วันนี้2   [ ◀ ช่วงเก่ากว่า ] [ ช่วงที่ 36 ] [ ช่วงใหม่กว่า ▶ ] [ ล่าสุด ]    [ 3 ชั่วโมง ] [ 6 ชั่วโมง ] [ 12 ชั่วโมง ] [ 24 ชั่วโมง ]   วันนี้2

อุณภูมิในตู้ Knockdown4529  ราย 6 ชั่วโมง  ที่วัดได้ ในช่วงวันเวลา 23/08/2026 (15:09) ถึง 23/08/2026 (21:09) 
ความชื้นในตู้ Knockdown4529  ราย 6 ชั่วโมง  ที่วัดได้ ในช่วงวันเวลา 23/08/2026 (15:09) ถึง 23/08/2026 (21:09) 
การใช้ไฟฟ้าในตู้ Knockdown4529  ราย 6 ชั่วโมง  ที่วัดได้ ในช่วงวันเวลา 23/08/2026 (15:09) ถึง 23/08/2026 (21:09) 

  DS18B20SHTC3PZEM-004TWiFi 
IDDate d/m/Y & Timedata1
สูง
data2
ต่ำ
data3
นอก
temp
pcb
hum
pcb
VoltAmpWattrssiTime
 15369  23/08/2026 21:07:41  31.8  31.9  29.5  33.0  65.6  228.7  0.04  4.5  -77  21:07 
 15368  23/08/2026 21:02:58  31.8  31.9  29.5  32.8  65.5  227.3  0.04  4.5  -78  21:02 
 15367  23/08/2026 20:58:14  31.8  31.9  29.5  33.0  65.5  229.4  0.04  4.5  -77  20:58 
 15366  23/08/2026 20:53:31  31.9  32.0  29.6  32.9  65.6  227.5  0.04  4.5  -78  20:53 
 15365  23/08/2026 20:48:47  31.9  32.0  29.7  33.0  65.5  229.0  0.04  4.5  -78  20:48 
 15364  23/08/2026 20:44:03  31.9  32.1  29.7  33.0  65.4  228.4  0.04  4.5  -79  20:44 
 15363  23/08/2026 20:39:20  31.9  32.1  29.7  32.8  65.4  229.2  0.04  4.5  -79  20:39 
 15362  23/08/2026 20:34:36  32.0  32.1  29.8  33.0  65.5  228.6  0.04  4.5  -78  20:34 
 15361  23/08/2026 20:29:53  32.0  32.1  29.9  33.1  65.3  226.2  0.04  4.5  -79  20:29 
 15360  23/08/2026 20:25:08  32.1  32.1  29.9  33.1  65.2  228.1  0.04  4.5  -79  20:25 
 15359  23/08/2026 20:20:25  32.1  32.2  30.0  33.0  65.1  227.3  0.04  4.5  -79  20:20 
 15358  23/08/2026 20:15:41  32.1  32.2  30.0  33.1  65.1  229.6  0.04  4.5  -76  20:15 
 15357  23/08/2026 20:10:57  32.1  32.2  30.0  33.2  65.1  227.4  0.04  4.5  -79  20:10 
 15356  23/08/2026 20:06:13  32.1  32.2  30.1  33.1  64.9  229.2  0.04  4.5  -80  20:06 
 15355  23/08/2026 20:01:30  32.2  32.2  30.1  33.3  65.2  227.5  0.04  4.5  -78  20:01 
 15354  23/08/2026 19:56:45  32.2  32.3  30.2  33.5  64.9  228.9  0.04  4.5  -76  19:56 
 15353  23/08/2026 19:52:01  32.2  32.3  30.2  33.3  64.9  226.7  0.04  4.5  -78  19:52 
 15352  23/08/2026 19:47:18  32.2  32.4  30.3  33.3  64.9  228.1  0.04  4.5  -78  19:47 
 15351  23/08/2026 19:42:34  32.3  32.4  30.3  33.1  64.8  228.8  0.04  4.5  -80  19:42 
 15350  23/08/2026 19:37:51  32.3  32.4  30.4  33.5  64.6  226.7  0.04  4.5  -79  19:37 
 15349  23/08/2026 19:33:08  32.4  32.4  30.4  33.3  64.6  226.0  0.04  4.5  -77  19:33 
 15348  23/08/2026 19:28:25  32.4  32.5  30.4  33.5  64.6  225.7  0.04  4.5  -79  19:28 
 15347  23/08/2026 19:23:41  32.4  32.6  30.5  33.6  64.4  225.6  0.04  4.5  -76  19:23 
 15346  23/08/2026 19:18:58  32.4  32.6  30.5  33.4  64.3  227.0  0.04  4.5  -77  19:18 

Data every 5 minute.


ใช้เวลาประมวลผล 0.02307 วินาที